TimeGMT,TemperatureF,Dew PointF,Humidity,Sea Level PressureIn,VisibilityMPH,Wind Direction,Wind SpeedMPH,Gust SpeedMPH,PrecipitationIn,Events,Conditions,WindDirDegrees,DateUTC
12:50 AM,33.8,32.0,93,29.95,5.6,ENE,2.3,-,N/A,,Unknown,60,2012-11-24 00:50:00
1:50 AM,33.8,32.0,93,29.95,4.3,NE,4.6,-,N/A,,Unknown,50,2012-11-24 01:50:00
2:50 AM,34,33,96,29.97,9,East,5.8,,,,,80,2012-11-24 02:50:00
2:50 AM,33.8,33.8,100,29.95,6.2,East,5.8,-,N/A,,Unknown,80,2012-11-24 02:50:00
3:50 AM,37.4,35.6,93,29.95,6.2,East,5.8,-,N/A,,Unknown,90,2012-11-24 03:50:00
4:50 AM,35.6,33.8,93,29.92,6.2,ENE,8.1,-,N/A,,Mostly Cloudy,70,2012-11-24 04:50:00
5:50 AM,40,38,88,29.93,19,East,8.1,,,,Overcast,80,2012-11-24 05:50:00
5:50 AM,39.2,37.4,93,29.92,6.2,East,8.1,-,N/A,,Overcast,80,2012-11-24 05:50:00
7:50 AM,42.8,39.2,87,29.89,6.2,ENE,9.2,-,N/A,,Mostly Cloudy,70,2012-11-24 07:50:00
8:50 AM,43,39,81,29.88,22,ENE,12.7,,,,Mostly Cloudy,70,2012-11-24 08:50:00
8:50 AM,42.8,39.2,87,29.86,6.2,ENE,12.7,-,N/A,,Mostly Cloudy,70,2012-11-24 08:50:00
9:50 AM,44.6,39.2,81,29.83,6.2,ENE,10.4,-,N/A,,Mostly Cloudy,70,2012-11-24 09:50:00
10:50 AM,46.4,41.0,81,29.80,6.2,ENE,10.4,-,N/A,,Mostly Cloudy,70,2012-11-24 10:50:00
11:50 AM,45,43,89,29.78,5,ENE,8.1,,,,Mostly Cloudy,70,2012-11-24 11:50:00
11:50 AM,44.6,42.8,93,29.77,5.0,ENE,8.1,-,N/A,,Mostly Cloudy,70,2012-11-24 11:50:00
12:50 PM,44.6,42.8,93,29.71,3.7,ENE,10.4,-,N/A,,Scattered Clouds,70,2012-11-24 12:50:00
1:50 PM,44.6,42.8,93,29.65,4.3,ENE,11.5,-,N/A,,Overcast,70,2012-11-24 13:50:00
2:50 PM,45,43,92,29.63,6,ENE,11.5,,,,Mostly Cloudy,70,2012-11-24 14:50:00
2:50 PM,44.6,42.8,93,29.62,5.6,ENE,11.5,-,N/A,,Scattered Clouds,70,2012-11-24 14:50:00
3:50 PM,44.6,42.8,93,29.56,6.2,ENE,13.8,-,N/A,,Mostly Cloudy,60,2012-11-24 15:50:00
4:50 PM,46.4,44.6,93,29.53,6.2,ENE,10.4,-,N/A,,Mostly Cloudy,70,2012-11-24 16:50:00
5:50 PM,46,44,92,29.51,7,ENE,8.1,,,,Overcast,70,2012-11-24 17:50:00
5:50 PM,46.4,44.6,93,29.50,6.2,ENE,8.1,-,N/A,,Overcast,70,2012-11-24 17:50:00
6:50 PM,46.4,44.6,93,29.44,4.3,ENE,9.2,-,N/A,,Overcast,70,2012-11-24 18:50:00
7:50 PM,46.4,44.6,93,29.42,3.1,ENE,11.5,-,N/A,,Mostly Cloudy,60,2012-11-24 19:50:00
8:50 PM,46,45,93,29.42,2,NE,9.2,,,,Scattered Clouds,50,2012-11-24 20:50:00
8:50 PM,46.4,44.6,93,29.42,2.5,NE,9.2,-,N/A,,Mostly Cloudy,50,2012-11-24 20:50:00
9:50 PM,46.4,44.6,93,29.39,3.7,NE,8.1,-,N/A,,Mostly Cloudy,50,2012-11-24 21:50:00
10:50 PM,46.4,44.6,93,29.39,-9999.0,WNW,18.4,-,N/A,,Mostly Cloudy,300,2012-11-24 22:50:00
11:50 PM,46,45,96,29.44,7,WNW,16.1,,,,Mostly Cloudy,300,2012-11-24 23:50:00
11:50 PM,46.4,44.6,93,29.42,6.2,WNW,16.1,-,N/A,,Mostly Cloudy,300,2012-11-24 23:50:00